This is the latest recevied weather packets stored in our database for station/object M0HZQ-1. If no packets are shown the sender has not sent any weather packets the latest 1 day(s).
| Time | Temp. | Humidity | Pressure | Rain* | Wind** | Luminosity | Snow |
|---|---|---|---|---|---|---|---|
| 1778026297 | 11.67° C | 58% | 1013.8 hPa | 0 mm | 0 m/s | - | - |
| 1778025309 | 12.22° C | 58% | 1013.7 hPa | 0 mm | 0 m/s | - | - |
| 1778024316 | 12.22° C | 58% | 1013.4 hPa | 0 mm | 0 m/s | - | - |
| 1778023309 | 11.67° C | 58% | 1013.5 hPa | 0 mm | 0 m/s | - | - |
| 1778022194 | 12.22° C | 57% | 1013.8 hPa | 0 mm | 0 m/s | - | - |
| 1778021009 | 12.22° C | 57% | 1013.5 hPa | 0 mm | 0 m/s | - | - |
| 1778019974 | 12.78° C | 59% | 1013.6 hPa | 0 mm | 0 m/s | - | - |
| 1778018929 | 13.33° C | 59% | 1013.6 hPa | 0 mm | 0 m/s | - | - |
| 1778017849 | 12.78° C | 58% | 1013.6 hPa | 0 mm | 0 m/s | - | - |
| 1778016874 | 12.78° C | 58% | 1013.5 hPa | 0 mm | 0 m/s | - | - |
| 1778015784 | 12.78° C | 57% | 1013.4 hPa | 0 mm | 0 m/s | - | - |
| 1778014804 | 13.89° C | 52% | 1013.2 hPa | 0 mm | 0 m/s | - | - |
| 1778013777 | 15.56° C | 49% | 1013.2 hPa | 0 mm | 0 m/s | - | - |
| 1778012654 | 15.56° C | 49% | 1013.1 hPa | 0 mm | 0 m/s | - | - |
| 1778011617 | 15.56° C | 49% | 1012.9 hPa | 0 mm | 0 m/s | - | - |
| 1778010614 | 15° C | 48% | 1012.8 hPa | 0 mm | 0 m/s | - | - |
| 1778009637 | 15.56° C | 47% | 1012.5 hPa | 0 mm | 0 m/s | - | - |
| 1778008564 | 15.56° C | 46% | 1012.3 hPa | 0 mm | 0 m/s | - | - |
| 1778007597 | 16.67° C | 44% | 1012.1 hPa | 0 mm | 0 m/s | - | - |
| 1778006549 | 17.22° C | 43% | 1012 hPa | 0 mm | 0 m/s | - | - |
| 1778005369 | 17.22° C | 42% | 1011.9 hPa | 0 mm | 0 m/s | - | - |
| 1778004217 | 17.78° C | 41% | 1012 hPa | 0 mm | 0 m/s | - | - |
| 1778003237 | 17.78° C | 41% | 1012 hPa | 0 mm | 0 m/s | - | - |
| 1778002137 | 18.33° C | 40% | 1012 hPa | 0 mm | 0 m/s | - | - |
| 1778000957 | 18.89° C | 39% | 1012 hPa | 0 mm | 0 m/s | - | - |
* Rain latest hour (hover to see other rain measurements)
** Current wind speed in m/s (hover to see current wind gust speed)